Pagina principale
METAR-TAF:

METAR-TAF

Aeroporti :

Foggia, Italia

Aeroporto di Foggia

latitudine: 41-25-58N, longitudine: 015-32-06E, altezza: 81 m

Osservazione

Il bollettino è stato emesso 1 ora e 15 minuti fa, alle 11:50 UTC
Vento 18 kt da sud-ovest con raffiche fino a 30 kt, variando fra sud/sud-ovest e ovest
Temperature 13°C
Umidità 67%
Pressione 1013 hPa
Visibilità 10 km o più
Nuvoloso ad un'altezza di 4000 ft

METAR: LIBF 161150Z 23018G30KT 200V260 9999 BKN040 13/07 Q1013

Ora: 14:05 (13:05 UTC)


TAF: mancante

Osservazioni e previsioni meteorologiche di più di 4000 aeroporti (messaggi METAR e TAF).

Le stazioni disponibili sono rappresentate dai dischi gialli e rossi sulla carta.

Puntare il mouse per vedere il nome della stazione.

Clicca sopra per visualizzare le osservazioni e previsioni meteorologiche.

Per cambiare la mappa : fare clic sui pulsanti verdi con una croce nera per ingrandire, il pulsante verde con un trattino per diminuire, o sulla freccia verde per le mappe adiacenti.


METAR-TAF: